When you browse on this site, cookies collect data to enhance your experience and personalize the content and advertising you see.
Visit our Privacy Policy to learn more. By continuing to use the site, you agree to this use of cookies and data.
  • In Austria
  • List of Countries
  • For 7 days
  • Water Temperature
  • Weather Map
  • News
  • Weather Widgets
  • user-avatar
    Login

    Hourly Weather Erfurt

    Today, 2 June, Tuesday

    Time Temperature Precipitation Wind Pressure Humidity
    00:00 +13°C° 0 mm 1 mps 748 mmHg 90%
    01:00 +12°C° 0 mm 1 mps 747 mmHg 92%
    02:00 +11°C° 0 mm 1 mps 747 mmHg 93%
    03:00 +11°C° 0 mm 1 mps 747 mmHg 93%
    04:00 +11°C° 0 mm 1 mps 747 mmHg 94%
    05:00 +12°C° 0 mm 1 mps 747 mmHg 91%
    06:00 +13°C° 0 mm 1 mps 747 mmHg 87%
    07:00 +15°C° 0 mm 1 mps 747 mmHg 84%
    08:00 +16°C° 0 mm 2 mps 747 mmHg 77%
    09:00 +18°C° 0 mm 2 mps 747 mmHg 71%
    10:00 +20°C° 0 mm 2 mps 747 mmHg 65%
    11:00 +21°C° 0 mm 2 mps 747 mmHg 60%
    12:00 +21°C° 0 mm 2 mps 746 mmHg 56%
    13:00 +23°C° 0 mm 2 mps 746 mmHg 52%
    14:00 +23°C° 0 mm 2 mps 745 mmHg 53%
    15:00 +23°C° 0 mm 2 mps 744 mmHg 54%
    16:00 +23°C° 0 mm 2 mps 744 mmHg 55%
    17:00 +21°C° 0 mm 2 mps 743 mmHg 61%
    18:00 +20°C° 0 mm 2 mps 743 mmHg 67%
    19:00 +20°C° 0 mm 1 mps 743 mmHg 73%
    20:00 +19°C° 0 mm 1 mps 742 mmHg 76%
    21:00 +16°C° 0 mm 1 mps 742 mmHg 79%
    22:00 +14°C° 0 mm 1 mps 742 mmHg 83%
    23:00 +14°C° 0 mm 1 mps 742 mmHg 82%

    Tomorrow, 3 June, Wednesday

    Time Temperature Precipitation Wind Pressure Humidity
    00:00 +14°C° 0 mm 1 mps 741 mmHg 81%
    01:00 +14°C° 0 mm 1 mps 741 mmHg 80%
    02:00 +13°C° 0 mm 1 mps 740 mmHg 79%
    03:00 +13°C° 0 mm 1 mps 740 mmHg 79%
    04:00 +13°C° 0 mm 1 mps 739 mmHg 79%
    05:00 +14°C° 0.2 mm 1 mps 739 mmHg 78%
    06:00 +15°C° 0.2 mm 1 mps 739 mmHg 78%
    07:00 +18°C° 0.2 mm 1 mps 738 mmHg 77%
    08:00 +19°C° 0.3 mm 1 mps 738 mmHg 74%
    09:00 +20°C° 0.3 mm 1 mps 738 mmHg 70%
    10:00 +22°C° 0.3 mm 1 mps 738 mmHg 67%
    11:00 +23°C° 0.3 mm 1 mps 737 mmHg 63%
    12:00 +24°C° 0.3 mm 2 mps 737 mmHg 59%
    13:00 +25°C° 0.3 mm 2 mps 736 mmHg 55%
    14:00 +24°C° 0.6 mm 2 mps 735 mmHg 60%
    15:00 +23°C° 0.6 mm 2 mps 735 mmHg 65%
    16:00 +21°C° 0.6 mm 2 mps 734 mmHg 70%
    17:00 +20°C° 0.2 mm 2 mps 734 mmHg 74%
    18:00 +20°C° 0.2 mm 2 mps 734 mmHg 79%
    19:00 +20°C° 0.2 mm 1 mps 733 mmHg 83%
    20:00 +18°C° 0 mm 1 mps 733 mmHg 85%
    21:00 +16°C° 0 mm 1 mps 733 mmHg 87%
    22:00 +14°C° 0 mm 1 mps 733 mmHg 89%
    23:00 +14°C° 0 mm 1 mps 733 mmHg 89%

    Day after tomorrow, 4 June, Thursday

    Time Temperature Precipitation Wind Pressure Humidity
    00:00 +14°C° 0 mm 1 mps 732 mmHg 88%
    01:00 +14°C° 0 mm 1 mps 732 mmHg 88%
    02:00 +14°C° 0 mm 1 mps 731 mmHg 88%
    03:00 +14°C° 0 mm 1 mps 731 mmHg 87%
    04:00 +14°C° 0 mm 1 mps 730 mmHg 87%
    05:00 +14°C° 0.4 mm 1 mps 730 mmHg 89%
    06:00 +15°C° 0.4 mm 1 mps 730 mmHg 90%
    07:00 +15°C° 0.4 mm 1 mps 729 mmHg 91%
    08:00 +15°C° 0.7 mm 2 mps 729 mmHg 92%
    09:00 +16°C° 0.7 mm 3 mps 729 mmHg 93%
    10:00 +15°C° 0.7 mm 4 mps 729 mmHg 94%
    11:00 +17°C° 0.2 mm 4 mps 728 mmHg 86%
    12:00 +18°C° 0.2 mm 4 mps 728 mmHg 79%
    13:00 +20°C° 0.2 mm 5 mps 728 mmHg 72%
    14:00 +20°C° 0.3 mm 4 mps 728 mmHg 72%
    15:00 +20°C° 0.3 mm 3 mps 727 mmHg 73%
    16:00 +20°C° 0.3 mm 3 mps 727 mmHg 74%
    17:00 +19°C° 0.8 mm 3 mps 727 mmHg 78%
    18:00 +18°C° 0.8 mm 3 mps 727 mmHg 83%
    19:00 +15°C° 0.8 mm 4 mps 727 mmHg 88%
    20:00 +14°C° 0.2 mm 4 mps 728 mmHg 90%
    21:00 +13°C° 0.2 mm 4 mps 728 mmHg 93%
    22:00 +12°C° 0.2 mm 4 mps 728 mmHg 95%
    23:00 +11°C° 0.1 mm 4 mps 729 mmHg 95%

    5 June, Friday

    Time Temperature Precipitation Wind Pressure Humidity
    00:00 +11°C° 0.1 mm 3 mps 729 mmHg 95%
    01:00 +10°C° 0.1 mm 3 mps 729 mmHg 95%
    02:00 +9°C° 0 mm 3 mps 729 mmHg 94%
    03:00 +9°C° 0 mm 3 mps 730 mmHg 93%
    04:00 +8°C° 0 mm 3 mps 730 mmHg 93%
    05:00 +7°C° 0 mm 4 mps 730 mmHg 90%
    06:00 +8°C° 0 mm 4 mps 731 mmHg 86%
    07:00 +8°C° 0 mm 4 mps 731 mmHg 83%
    08:00 +11°C° 0 mm 4 mps 731 mmHg 75%
    09:00 +12°C° 0 mm 4 mps 731 mmHg 67%
    10:00 +13°C° 0 mm 4 mps 731 mmHg 59%
    11:00 +14°C° 0 mm 5 mps 731 mmHg 56%
    12:00 +15°C° 0 mm 5 mps 731 mmHg 54%
    13:00 +16°C° 0 mm 6 mps 731 mmHg 51%
    14:00 +16°C° 0.1 mm 6 mps 731 mmHg 53%
    15:00 +16°C° 0.1 mm 6 mps 731 mmHg 55%
    16:00 +16°C° 0.1 mm 6 mps 731 mmHg 57%
    17:00 +15°C° 0.5 mm 5 mps 731 mmHg 66%
    18:00 +14°C° 0.5 mm 5 mps 731 mmHg 75%
    19:00 +12°C° 0.5 mm 5 mps 731 mmHg 84%
    20:00 +11°C° 0.1 mm 4 mps 731 mmHg 86%
    21:00 +10°C° 0.1 mm 4 mps 732 mmHg 89%
    22:00 +9°C° 0.1 mm 3 mps 732 mmHg 92%
    23:00 +8°C° 0 mm 3 mps 732 mmHg 92%

    6 June, Saturday

    Time Temperature Precipitation Wind Pressure Humidity
    00:00 +8°C° 0 mm 3 mps 732 mmHg 93%
    01:00 +7°C° 0 mm 3 mps 732 mmHg 93%
    02:00 +8°C° 0.1 mm 3 mps 732 mmHg 93%
    03:00 +8°C° 0.1 mm 3 mps 733 mmHg 92%
    04:00 +7°C° 0.1 mm 4 mps 733 mmHg 91%
    05:00 +8°C° 0.1 mm 5 mps 733 mmHg 89%
    06:00 +8°C° 0.1 mm 6 mps 733 mmHg 87%
    07:00 +9°C° 0.1 mm 7 mps 733 mmHg 86%
    08:00 +10°C° 0.1 mm 7 mps 733 mmHg 80%
    09:00 +11°C° 0.1 mm 7 mps 734 mmHg 74%
    10:00 +14°C° 0.1 mm 7 mps 734 mmHg 69%
    11:00 +12°C° 0.2 mm 7 mps 734 mmHg 72%
    12:00 +12°C° 0.2 mm 7 mps 734 mmHg 75%
    13:00 +11°C° 0.2 mm 7 mps 734 mmHg 79%
    14:00 +13°C° 0.2 mm 6 mps 734 mmHg 78%
    15:00 +13°C° 0.2 mm 6 mps 734 mmHg 77%
    16:00 +13°C° 0.2 mm 5 mps 734 mmHg 77%
    17:00 +13°C° 0.2 mm 5 mps 735 mmHg 78%
    18:00 +13°C° 0.2 mm 5 mps 735 mmHg 79%
    19:00 +13°C° 0.2 mm 4 mps 735 mmHg 81%
    20:00 +12°C° 0.1 mm 4 mps 736 mmHg 83%
    21:00 +11°C° 0.1 mm 3 mps 736 mmHg 85%
    22:00 +9°C° 0.1 mm 2 mps 737 mmHg 87%
    23:00 +8°C° 0 mm 2 mps 737 mmHg 88%

    7 June, Sunday

    Time Temperature Precipitation Wind Pressure Humidity
    00:00 +8°C° 0 mm 2 mps 737 mmHg 89%
    01:00 +8°C° 0 mm 1 mps 737 mmHg 90%
    02:00 +8°C° 0 mm 1 mps 737 mmHg 90%
    03:00 +7°C° 0 mm 1 mps 738 mmHg 90%
    04:00 +7°C° 0 mm 1 mps 738 mmHg 90%
    05:00 +8°C° 0 mm 1 mps 738 mmHg 86%
    06:00 +9°C° 0 mm 2 mps 739 mmHg 81%
    07:00 +10°C° 0 mm 2 mps 739 mmHg 77%
    08:00 +12°C° 0 mm 3 mps 739 mmHg 69%
    09:00 +13°C° 0 mm 3 mps 739 mmHg 62%
    10:00 +14°C° 0 mm 4 mps 740 mmHg 54%
    11:00 +15°C° 0 mm 4 mps 740 mmHg 51%
    12:00 +17°C° 0 mm 4 mps 740 mmHg 49%
    13:00 +16°C° 0 mm 5 mps 740 mmHg 46%
    14:00 +16°C° 0 mm 5 mps 740 mmHg 46%
    15:00 +16°C° 0 mm 5 mps 740 mmHg 47%
    16:00 +16°C° 0 mm 5 mps 740 mmHg 47%
    17:00 +17°C° 0 mm 4 mps 740 mmHg 54%
    18:00 +16°C° 0 mm 3 mps 741 mmHg 60%
    19:00 +15°C° 0 mm 2 mps 741 mmHg 67%
    20:00 +13°C° 0 mm 2 mps 741 mmHg 70%
    21:00 +11°C° 0 mm 1 mps 742 mmHg 73%
    22:00 +9°C° 0 mm 1 mps 742 mmHg 76%
    23:00 +9°C° 0 mm 1 mps 743 mmHg 78%
    Show more